sat.trackr.live / text

‹ back to catalog

STARLINK-35293

NORAD 66012 · 2025-232H

PAYLOAD ACTIVE UNKNOWN

§ Identity

Operator
Country
US
Launch date
2025-10-16
Launch site
AFETR
Launch vehicle
Mass (kg)
RCS (m²)

Purposes: comms

External: N2YO · Heavens-Above · Gunter

§ Orbital elements

Epoch: 2026-05-25T04:45:17.428032Z

Period
94.10 min
Inclination
53.1569°
Eccentricity
0.0001345
Mean motion
15.30208495 rev/d
Perigee alt
474.3 km
Apogee alt
476.1 km
Semi-major
6,853.3 km
B*
6.4973e-4
RAAN
108.2288°
Arg perigee
90.3660°
Mean anomaly
269.7494°
Rev number
3,515

§ Raw data

STARLINK-352931 66012U 25232H   26145.19811838  .00018938  00000+0  64973-3 0  99962 66012  53.1569 108.2288 0001345  90.3660 269.7494 15.30208495 35154

JSON: /api/v1/satellites/66012 · /tle

For live sub-satellite position, see the globe view (requires WebGL).

§ Visibility from observer

Set your observer location to see the next 7 days of passes ≥ 10°. The values pass through the URL so the page stays shareable.

No JS? Fill the form by hand. The geolocation button needs JavaScript.